Tracking 29892 objects as of 21-Nov-2024
HD Live streaming from Space Station
objects crossing your sky now

IUS R/B(1)

Track IUS R/B(1) now!
10-day predictions


NORAD ID: 19970
Int'l Code: 1989-033C
Perigee: 310.2 km
Apogee: 19,742.2 km
Inclination: 28.0 °
Period: 348.3 minutes
Semi major axis: 16397 km
RCS: 12.0706 m2 (large)
Launch date: May 4, 1989
Source: United States (US)
Launch site: AIR FORCE EASTERN TEST RANGE (AFETR)

Note: This is a ROCKET BODY
Your satellite tracking list
Your tracking list is empty




NASA's NSSDC Master Catalog

Two Line Element Set (TLE):
1 19970U 89033C   24325.66162286  .00003425  00000-0  96171-3 0  9993
2 19970  27.9687 292.7020 5925416 214.8545  86.0565  4.13474015481383
Source of the keplerian elements: AFSPC